Snowfall_Accumulation
1.1 3.6 6.8 3.5 2.7 3.3 3.9 4.8 4.0 1.6 0.4 1.3 1.7 1.8 1.4 0.8 0.7 0.8 0.4 0.2 0.2 0.3 0.2 0.1 0.0 0.0 0.0 0.0 0.0 0.0 0.0 0.0 0.0 0.0 0.0 0.0 0.0 0.0 0.0 0.1 0.1 0.3 0.4 0.7
4.6 5.9 1.6 0.5 1.0 2.7 4.2 5.7 3.9 1.6 0.6 1.6 2.1 2.0 1.4 0.8 1.0 0.9 0.5 0.6 0.5 0.5 0.5 0.4 0.2 0.1 0.0 0.0 0.0 0.0 0.0 0.0 0.0 0.0 0.0 0.0 0.0 0.0 0.0 0.0 0.1 0.2 0.4 0.8
6.5 2.6 0.7 1.9 2.9 4.6 4.8 4.7 3.7 3.8 1.8 1.6 3.1 3.2 1.5 0.9 0.9 1.0 0.7 0.6 0.6 0.6 0.6 0.5 0.2 0.2 0.1 0.1 0.0 0.0 0.0 0.0 0.0 0.0 0.0 0.0 0.0 0.0 0.0 0.0 0.0 0.1 0.2 0.8
3.7 0.8 1.0 2.7 3.4 4.5 5.4 1.6 2.5 3.7 5.4 6.1 5.1 8.1 2.4 1.6 1.3 1.2 1.2 1.0 0.7 0.4 0.4 0.3 0.5 0.3 0.3 0.2 0.1 0.0 0.1 0.0 0.0 0.0 0.0 0.0 0.0 0.0 0.0 0.0 0.0 0.1 0.1 0.7
4.5 1.1 1.5 3.7 2.4 2.6 3.9 1.2 2.0 4.1 6.8 7.6 4.2 7.8 3.6 1.5 2.0 1.8 1.4 1.4 0.7 0.7 0.9 0.8 0.9 0.8 0.5 0.6 0.2 0.1 0.1 0.1 0.1 0.0 0.0 0.0 0.0 0.0 0.0 0.0 0.0 0.1 0.1 0.2
2.3 0.8 1.2 1.8 0.6 1.1 1.7 1.9 2.7 4.5 9.1 15.4 4.5 6.2 5.4 4.0 4.1 2.5 1.4 1.5 1.1 0.8 1.0 1.2 1.0 1.0 0.9 0.7 0.7 0.3 0.2 0.2 0.1 0.1 0.1 0.2 0.2 0.2 0.1 0.1 0.0 0.1 0.1 0.2
6.0 2.9 1.5 1.1 2.8 2.7 3.9 10.7 22.7 23.7 21.8 11.6 2.3 4.0 4.9 3.3 2.7 2.4 2.2 2.1 1.4 1.0 1.0 1.2 1.2 0.8 1.0 0.9 0.6 0.8 0.3 0.8 0.8 0.4 0.5 0.5 0.2 0.2 0.3 0.3 0.2 0.1 0.2 0.2
11.2 10.6 2.7 1.6 3.1 5.0 4.6 7.9 17.2 17.0 10.7 4.9 3.0 4.5 4.1 2.4 1.7 1.5 1.3 1.3 1.2 1.1 0.8 0.9 1.1 1.1 0.8 0.8 0.6 0.8 0.7 0.7 0.8 0.8 0.7 0.6 0.2 0.3 0.3 0.2 0.3 0.3 0.1 0.1
11.0 7.9 1.4 0.9 1.3 3.2 6.5 7.4 6.2 12.0 8.8 6.2 4.8 3.6 3.0 1.6 1.5 1.3 1.2 1.0 1.3 1.3 1.1 1.0 1.1 1.0 0.8 0.8 0.7 0.7 0.7 0.6 0.6 0.7 0.7 0.6 0.5 0.4 0.3 0.3 0.3 0.3 0.1 0.1
11.1 9.9 2.6 0.9 1.5 2.0 3.7 5.0 8.9 16.5 14.1 8.3 5.0 4.2 5.1 3.4 2.9 2.1 2.0 1.9 1.3 1.3 1.4 1.5 0.9 0.8 0.9 0.7 0.8 0.8 0.9 0.9 0.6 0.6 0.6 0.6 1.0 0.5 0.4 0.4 0.4 0.4 0.4 0.2
8.6 12.1 7.2 3.2 5.0 5.0 4.9 6.9 10.3 13.9 11.8 10.5 6.9 5.8 4.6 4.3 3.2 2.6 2.5 2.2 1.6 1.5 1.5 1.6 1.2 0.7 0.8 0.8 0.8 0.9 1.1 1.1 0.8 0.7 0.6 1.1 1.0 0.5 0.5 0.5 0.5 0.5 0.5 0.4
7.8 13.0 10.5 4.6 2.1 2.3 4.2 6.5 9.8 16.4 12.6 8.4 7.9 6.3 3.3 2.6 2.6 2.4 2.3 2.2 1.8 1.6 1.4 1.3 1.3 0.8 0.7 0.8 0.9 1.0 1.2 1.2 1.1 0.7 0.6 0.5 0.5 0.5 0.4 0.5 0.6 0.6 0.5 0.5
13.6 19.8 17.3 7.5 4.0 3.3 5.5 5.9 7.2 10.2 12.5 9.7 8.6 6.1 2.4 1.5 1.4 1.6 1.6 1.8 1.8 1.4 1.3 1.4 1.3 0.9 0.7 0.9 0.9 1.0 1.1 1.4 1.1 1.1 0.8 0.5 0.4 0.5 0.6 0.4 0.4 0.4 0.5 0.4
11.1 21.4 14.7 11.4 8.3 8.1 7.9 5.8 5.7 10.4 15.1 9.2 5.3 4.4 2.7 2.1 1.7 1.5 1.4 1.4 1.8 2.1 1.6 1.6 1.5 1.1 0.8 0.8 0.9 0.9 1.0 1.3 1.0 1.0 1.1 0.9 0.9 0.5 0.6 0.5 0.4 0.4 0.3 0.4
10.4 17.3 8.0 4.7 3.4 4.7 5.5 4.8 4.7 7.5 7.8 7.7 4.4 3.8 3.6 3.1 2.6 2.1 1.8 1.6 1.7 1.8 1.8 1.7 1.7 1.7 1.3 0.9 0.7 0.6 0.8 1.1 1.0 1.0 1.0 1.2 1.2 1.2 0.7 0.5 0.4 0.5 0.4 0.4
11.5 14.9 7.4 4.3 2.8 3.5 4.3 3.5 3.5 4.2 4.4 4.3 3.3 3.4 2.9 2.6 2.2 2.2 2.1 2.0 2.1 2.2 1.8 1.6 1.9 2.2 1.9 1.2 1.0 0.8 0.9 1.0 1.0 1.1 1.2 1.2 1.3 1.3 1.3 0.8 0.4 0.5 0.6 0.6
13.4 14.5 13.0 6.9 3.1 5.5 6.7 4.3 4.2 4.4 4.2 4.8 5.5 4.4 2.8 2.7 2.6 3.0 3.1 3.1 3.0 2.8 2.2 1.8 1.9 2.1 1.8 1.5 1.2 1.3 1.1 0.9 1.0 1.0 1.3 1.4 1.3 1.3 1.3 1.4 1.2 0.8 0.9 1.0
11.4 14.2 18.5 12.2 8.4 11.7 4.7 2.7 3.1 3.8 4.3 4.7 4.5 3.6 3.4 3.5 3.0 2.8 3.0 3.7 3.6 3.0 2.6 2.3 2.1 1.7 1.5 1.2 1.3 1.2 1.1 1.0 1.0 1.0 1.3 1.2 1.3 1.3 1.3 1.4 1.6 1.3 1.3 1.2
5.2 13.5 21.3 18.6 13.1 6.4 2.9 2.5 3.4 4.7 5.3 4.2 3.8 3.4 2.9 2.4 2.0 2.3 2.1 2.6 3.4 3.4 3.2 2.8 2.3 1.6 1.2 1.0 1.2 1.3 1.0 0.8 0.9 1.1 1.4 1.4 1.5 1.4 1.2 1.4 1.8 1.6 1.6 1.4
5.3 11.3 22.5 20.9 16.2 7.5 4.2 2.4 2.0 3.4 6.5 3.6 3.4 3.7 3.1 2.9 4.2 3.3 2.3 2.6 2.9 2.6 2.9 2.9 2.5 1.8 1.2 0.7 0.9 1.1 1.1 0.9 1.1 1.4 1.3 1.4 1.4 1.5 1.4 1.6 2.1 1.9 1.8 1.3
11.0 17.8 21.7 17.4 14.4 5.8 3.8 2.3 1.8 6.2 7.4 3.3 3.3 3.5 3.6 4.3 5.2 3.9 3.0 3.0 3.0 2.7 2.8 2.7 2.4 2.0 1.5 0.7 0.7 1.0 1.2 1.4 1.3 1.3 1.3 1.2 1.4 1.3 1.5 2.0 2.3 1.9 1.6 1.9
8.1 12.3 13.3 12.9 15.0 7.8 3.4 3.8 6.4 7.0 3.5 2.6 2.4 2.5 2.9 2.8 2.5 2.5 2.5 2.7 2.3 2.5 2.4 2.0 2.4 2.2 1.5 1.0 1.0 1.0 1.1 1.4 1.2 1.2 1.4 1.6 1.6 1.3 1.2 1.8 2.3 2.1 2.3 2.1
6.8 8.6 9.3 9.0 7.1 4.4 3.1 3.9 3.8 3.2 3.2 2.4 2.3 2.1 2.1 2.3 2.3 2.5 2.6 2.5 2.3 2.3 2.4 1.8 2.2 2.1 1.7 1.2 1.1 1.7 1.2 1.4 1.6 1.6 1.6 1.8 1.7 1.7 1.5 1.8 2.0 1.9 2.0 2.4
4.1 3.9 6.6 6.5 3.8 2.9 2.8 2.8 2.7 2.5 2.6 2.1 2.1 1.8 1.7 1.9 2.0 2.3 2.3 2.3 2.3 2.1 2.2 2.2 2.2 1.9 1.7 1.7 1.2 1.4 1.5 1.6 1.7 1.8 1.8 1.8 1.9 2.0 1.9 1.9 2.0 2.3 2.5 3.6
3.8 4.6 6.1 5.6 3.1 2.6 2.4 2.4 2.3 2.0 1.8 1.7 1.8 1.7 1.7 1.9 2.0 2.0 2.3 2.3 2.3 2.5 2.5 2.4 2.5 2.3 2.0 2.0 1.6 1.5 1.7 1.8 1.9 1.9 2.1 2.3 2.3 2.3 2.1 2.1 2.0 2.5 2.6 3.9
3.1 4.5 6.5 5.8 3.4 4.3 3.3 2.4 2.1 2.2 2.1 1.9 1.9 1.9 1.6 1.9 2.3 2.2 2.4 2.4 2.6 2.4 2.6 2.5 2.3 2.6 2.2 2.2 1.9 1.8 1.9 2.1 2.2 2.3 2.0 2.3 2.5 2.1 2.0 2.0 2.2 1.8 1.9 2.2